EN

Hourly Weather Dzierzazna

Today, 31 October, Saturday

Time Temperature Precipitation Wind Pressure Humidity
00:00 +8°C° 0 mm 1 mps 758 mmHg 89%
01:00 +8°C° 0 mm 1 mps 758 mmHg 91%
02:00 +7°C° 0 mm 1 mps 758 mmHg 91%
03:00 +7°C° 0 mm 1 mps 759 mmHg 91%
04:00 +7°C° 0 mm 1 mps 759 mmHg 92%
05:00 +7°C° 0 mm 1 mps 760 mmHg 92%
06:00 +6°C° 0 mm 1 mps 760 mmHg 92%
07:00 +6°C° 0 mm 1 mps 761 mmHg 92%
08:00 +8°C° 0 mm 1 mps 761 mmHg 86%
09:00 +8°C° 0 mm 0 mps 761 mmHg 80%
10:00 +9°C° 0 mm 0 mps 762 mmHg 74%
11:00 +11°C° 0 mm 1 mps 762 mmHg 71%
12:00 +12°C° 0 mm 1 mps 762 mmHg 67%
13:00 +12°C° 0 mm 1 mps 762 mmHg 64%
14:00 +12°C° 0 mm 1 mps 762 mmHg 68%
15:00 +10°C° 0 mm 0 mps 762 mmHg 71%
16:00 +9°C° 0 mm 0 mps 762 mmHg 75%
17:00 +9°C° 0 mm 0 mps 762 mmHg 77%
18:00 +9°C° 0 mm 1 mps 762 mmHg 79%
19:00 +9°C° 0 mm 1 mps 762 mmHg 82%
20:00 +8°C° 0 mm 1 mps 762 mmHg 83%
21:00 +8°C° 0 mm 1 mps 762 mmHg 84%
22:00 +7°C° 0 mm 2 mps 762 mmHg 85%
23:00 +7°C° 0 mm 2 mps 762 mmHg 86%

Tomorrow, 1 November, Sunday

Time Temperature Precipitation Wind Pressure Humidity
00:00 +6°C° 0 mm 2 mps 762 mmHg 87%
01:00 +6°C° 0 mm 2 mps 762 mmHg 89%
02:00 +6°C° 0 mm 2 mps 762 mmHg 89%
03:00 +4°C° 0 mm 3 mps 761 mmHg 89%
04:00 +4°C° 0 mm 3 mps 761 mmHg 90%
05:00 +4°C° 0 mm 3 mps 760 mmHg 89%
06:00 +4°C° 0 mm 3 mps 760 mmHg 89%
07:00 +4°C° 0 mm 3 mps 760 mmHg 89%
08:00 +5°C° 0 mm 3 mps 760 mmHg 82%
09:00 +7°C° 0 mm 4 mps 760 mmHg 75%
10:00 +8°C° 0 mm 4 mps 759 mmHg 69%
11:00 +10°C° 0 mm 4 mps 759 mmHg 67%
12:00 +10°C° 0 mm 5 mps 758 mmHg 66%
13:00 +10°C° 0 mm 5 mps 758 mmHg 64%
14:00 +11°C° 0 mm 4 mps 757 mmHg 69%
15:00 +10°C° 0 mm 4 mps 756 mmHg 73%
16:00 +10°C° 0 mm 3 mps 756 mmHg 77%
17:00 +10°C° 0 mm 4 mps 756 mmHg 79%
18:00 +10°C° 0 mm 4 mps 755 mmHg 81%
19:00 +10°C° 0 mm 4 mps 755 mmHg 84%
20:00 +10°C° 0.8 mm 4 mps 755 mmHg 88%
21:00 +10°C° 0.8 mm 4 mps 754 mmHg 92%
22:00 +10°C° 0.8 mm 3 mps 754 mmHg 96%
23:00 +11°C° 0.6 mm 4 mps 754 mmHg 96%

Day after tomorrow, 2 November, Monday

Time Temperature Precipitation Wind Pressure Humidity
00:00 +11°C° 0.6 mm 4 mps 753 mmHg 95%
01:00 +11°C° 0.6 mm 4 mps 753 mmHg 95%
02:00 +11°C° 0.1 mm 4 mps 753 mmHg 95%
03:00 +11°C° 0.1 mm 4 mps 753 mmHg 95%
04:00 +11°C° 0.1 mm 3 mps 753 mmHg 96%
05:00 +11°C° 0.2 mm 3 mps 753 mmHg 96%
06:00 +12°C° 0.2 mm 3 mps 753 mmHg 95%
07:00 +12°C° 0.2 mm 4 mps 753 mmHg 95%
08:00 +12°C° 0 mm 4 mps 754 mmHg 93%
09:00 +13°C° 0 mm 4 mps 754 mmHg 90%
10:00 +13°C° 0 mm 3 mps 754 mmHg 87%
11:00 +14°C° 0 mm 3 mps 754 mmHg 85%
12:00 +14°C° 0 mm 3 mps 754 mmHg 84%
13:00 +14°C° 0 mm 3 mps 755 mmHg 82%
14:00 +14°C° 0.1 mm 2 mps 755 mmHg 86%
15:00 +14°C° 0.1 mm 2 mps 755 mmHg 91%
16:00 +14°C° 0.1 mm 2 mps 755 mmHg 95%
17:00 +14°C° 0 mm 2 mps 755 mmHg 95%
18:00 +14°C° 0 mm 2 mps 755 mmHg 96%
19:00 +13°C° 0 mm 3 mps 755 mmHg 96%
20:00 +13°C° 0 mm 3 mps 755 mmHg 96%
21:00 +13°C° 0 mm 3 mps 755 mmHg 96%
22:00 +13°C° 0 mm 3 mps 755 mmHg 95%
23:00 +14°C° 0 mm 3 mps 755 mmHg 95%

3 November, Tuesday

Time Temperature Precipitation Wind Pressure Humidity
00:00 +14°C° 0 mm 3 mps 755 mmHg 94%
01:00 +14°C° 0 mm 3 mps 756 mmHg 93%
02:00 +14°C° 0 mm 3 mps 756 mmHg 93%
03:00 +14°C° 0 mm 3 mps 756 mmHg 93%
04:00 +14°C° 0 mm 3 mps 756 mmHg 92%
05:00 +14°C° 0 mm 3 mps 756 mmHg 93%
06:00 +14°C° 0 mm 3 mps 757 mmHg 93%
07:00 +14°C° 0 mm 3 mps 757 mmHg 94%
08:00 +14°C° 0 mm 3 mps 757 mmHg 93%
09:00 +14°C° 0 mm 4 mps 758 mmHg 91%
10:00 +15°C° 0 mm 4 mps 758 mmHg 90%
11:00 +15°C° 0 mm 5 mps 759 mmHg 81%
12:00 +15°C° 0 mm 5 mps 759 mmHg 71%
13:00 +15°C° 0 mm 5 mps 760 mmHg 62%
14:00 +14°C° 0 mm 5 mps 760 mmHg 64%
15:00 +13°C° 0 mm 4 mps 761 mmHg 66%
16:00 +12°C° 0 mm 3 mps 761 mmHg 68%
17:00 +11°C° 0 mm 3 mps 762 mmHg 70%
18:00 +11°C° 0 mm 3 mps 762 mmHg 72%
19:00 +10°C° 0 mm 2 mps 763 mmHg 74%
20:00 +10°C° 0 mm 2 mps 763 mmHg 76%
21:00 +9°C° 0 mm 2 mps 763 mmHg 77%
22:00 +9°C° 0 mm 2 mps 764 mmHg 78%
23:00 +9°C° 0 mm 2 mps 764 mmHg 79%

4 November, Wednesday

Time Temperature Precipitation Wind Pressure Humidity
00:00 +8°C° 0 mm 2 mps 764 mmHg 80%
01:00 +8°C° 0 mm 2 mps 764 mmHg 80%
02:00 +8°C° 0 mm 2 mps 764 mmHg 80%
03:00 +8°C° 0 mm 2 mps 765 mmHg 80%
04:00 +8°C° 0 mm 2 mps 765 mmHg 80%
05:00 +8°C° 0 mm 2 mps 765 mmHg 81%
06:00 +7°C° 0 mm 2 mps 765 mmHg 82%
07:00 +7°C° 0 mm 2 mps 765 mmHg 84%
08:00 +8°C° 0 mm 2 mps 766 mmHg 80%
09:00 +9°C° 0 mm 3 mps 766 mmHg 76%
10:00 +10°C° 0 mm 3 mps 766 mmHg 72%
11:00 +10°C° 0 mm 3 mps 766 mmHg 69%
12:00 +11°C° 0 mm 3 mps 766 mmHg 65%
13:00 +11°C° 0 mm 3 mps 766 mmHg 62%
14:00 +11°C° 0 mm 3 mps 766 mmHg 65%
15:00 +10°C° 0 mm 2 mps 766 mmHg 68%
16:00 +9°C° 0 mm 2 mps 766 mmHg 72%
17:00 +8°C° 0 mm 2 mps 767 mmHg 74%
18:00 +8°C° 0 mm 2 mps 767 mmHg 77%
19:00 +7°C° 0 mm 2 mps 768 mmHg 80%
20:00 +7°C° 0 mm 2 mps 768 mmHg 81%
21:00 +6°C° 0 mm 2 mps 768 mmHg 82%
22:00 +7°C° 0 mm 1 mps 768 mmHg 83%
23:00 +7°C° 0 mm 1 mps 769 mmHg 83%

5 November, Thursday

Time Temperature Precipitation Wind Pressure Humidity
00:00 +6°C° 0 mm 1 mps 769 mmHg 83%
01:00 +6°C° 0 mm 1 mps 769 mmHg 83%
02:00 +6°C° 0 mm 1 mps 769 mmHg 84%
03:00 +6°C° 0 mm 1 mps 769 mmHg 85%
04:00 +5°C° 0 mm 1 mps 770 mmHg 86%
05:00 +5°C° 0 mm 1 mps 770 mmHg 87%
06:00 +5°C° 0 mm 1 mps 770 mmHg 88%
07:00 +4°C° 0 mm 1 mps 770 mmHg 90%
08:00 +5°C° 0 mm 2 mps 770 mmHg 84%
09:00 +6°C° 0 mm 2 mps 771 mmHg 79%
10:00 +7°C° 0 mm 2 mps 771 mmHg 74%
11:00 +8°C° 0 mm 2 mps 771 mmHg 72%
12:00 +8°C° 0 mm 2 mps 771 mmHg 70%
13:00 +9°C° 0 mm 3 mps 771 mmHg 68%
14:00 +8°C° 0 mm 2 mps 771 mmHg 73%
15:00 +8°C° 0 mm 2 mps 771 mmHg 78%
16:00 +7°C° 0 mm 2 mps 771 mmHg 83%
17:00 +6°C° 0 mm 2 mps 771 mmHg 86%
18:00 +6°C° 0 mm 2 mps 771 mmHg 89%
19:00 +5°C° 0 mm 2 mps 771 mmHg 92%
20:00 +5°C° 0 mm 2 mps 771 mmHg 93%
21:00 +5°C° 0 mm 2 mps 771 mmHg 94%
22:00 +5°C° 0 mm 2 mps 772 mmHg 95%
23:00 +4°C° 0 mm 2 mps 771 mmHg 94%
Show more